La Grande, OR

1:56 AM PST on December 07, 2016 (GMT -0800)
La Grande-Union County

Weather History for KLGD - October, 2012

Change the Weather History Date:

Saturday, October 6, 2012

  Actual Average Record
Temperature  
Mean Temperature 42 °F -  
Max Temperature 62 °F 64 °F 87 °F (1980)
Min Temperature 21 °F 35 °F 20 °F (1974)
Degree Days  
Heating Degree Days 24    
Moisture  
Dew Point 16 °F    
Average Humidity 38    
Maximum Humidity 64    
Minimum Humidity 19    
Precipitation  
Precipitation 0.00 in - - ()
Sea Level Pressure  
Sea Level Pressure 30.25 in    
Wind  
Wind Speed 3 mph (WNW)    
Max Wind Speed 8 mph    
Max Gust Speed -    
Visibility 9 miles    
Events      
Averages and records for this station are not official NWS values.
T = Trace of Precipitation, MM = Missing Value Source: NWS Daily Summary

Daily Weather History Graph

Daily Weather History Graph

Search for Another Location

Airport or City:

Trip Planner

Search our weather history database for the weather conditions in past years. The results will help you decide how hot, cold, wet, or windy it might be!

Date:

Astronomy

Oct. 06, 2012 Rise Set
Actual Time 6:57 AM PDT 6:21 PM PDT
Civil Twilight 6:27 AM PDT 6:51 PM PDT
Nautical Twilight 5:53 AM PDT 7:25 PM PDT
Astronomical Twilight 5:19 AM PDT 7:59 PM PDT
Moon 10:29 PM PDT (10/6) 1:08 PM PDT (10/6)
Length of Visible Light 12h 23m
Length of Day
11h 24m
Waning Gibbous, 64% of the Moon is Illuminated
Oct 6
Waning Gibbous
Oct 8
Last Quarter
Oct 15
New
Oct 21
First Quarter
Oct 29
Full

Hourly Weather History & Observations

Time (PDT) Temp. Windchill Dew Point Humidity Pressure Visibility Wind Dir Wind Speed Gust Speed Precip Events Conditions
12:15 AM 37.4 °F 34.9 °F 15.8 °F 41% 30.27 in 10.0 mi WNW 3.5 mph - N/A   Clear
12:35 AM 35.6 °F 31.7 °F 15.8 °F 44% 30.27 in 10.0 mi WNW 4.6 mph - N/A   Clear
12:55 AM 35.6 °F 32.8 °F 15.8 °F 44% 30.27 in 10.0 mi NW 3.5 mph - N/A   Clear
1:15 AM 33.8 °F 28.6 °F 15.8 °F 48% 30.28 in 10.0 mi WNW 5.8 mph - N/A   Clear
1:35 AM 33.8 °F 27.7 °F 15.8 °F 48% 30.28 in 10.0 mi NW 6.9 mph - N/A   Clear
1:55 AM 35.6 °F 29.9 °F 17.6 °F 48% 30.27 in 10.0 mi NW 6.9 mph - N/A   Clear
2:15 AM 33.8 °F 27.7 °F 17.6 °F 52% 30.28 in 10.0 mi NW 6.9 mph - N/A   Clear
2:35 AM 32.0 °F 27.5 °F 15.8 °F 51% 30.28 in 10.0 mi WSW 4.6 mph - N/A   Clear
2:55 AM 33.8 °F 30.8 °F 17.6 °F 52% 30.28 in 10.0 mi NNW 3.5 mph - N/A   Clear
3:15 AM 28.4 °F - 12.2 °F 51% 30.28 in 10.0 mi Calm Calm - N/A   Clear
3:35 AM 28.4 °F - 14.0 °F 55% 30.27 in 10.0 mi Calm Calm - N/A   Clear
3:55 AM 28.4 °F - 12.2 °F 51% 30.28 in 10.0 mi Calm Calm - N/A   Clear
4:15 AM 24.8 °F - 10.4 °F 54% 30.28 in 10.0 mi Calm Calm - N/A   Clear
4:35 AM 26.6 °F - 12.2 °F 55% 30.28 in 10.0 mi Calm Calm - N/A   Clear
4:55 AM 26.6 °F - 12.2 °F 55% 30.28 in 10.0 mi Calm Calm - N/A   Clear
5:15 AM 26.6 °F - 12.2 °F 55% 30.28 in 10.0 mi Calm Calm - N/A   Clear
5:35 AM 26.6 °F - 12.2 °F 55% 30.28 in 10.0 mi Calm Calm - N/A   Clear
5:55 AM 24.8 °F - 10.4 °F 54% 30.28 in 10.0 mi Calm Calm - N/A   Clear
6:15 AM 21.2 °F - 8.6 °F 58% 30.29 in 10.0 mi Calm Calm - N/A   Clear
6:35 AM 23.0 °F - 10.4 °F 59% 30.29 in 10.0 mi Calm Calm - N/A   Clear
6:55 AM 23.0 °F - 12.2 °F 63% 30.30 in 10.0 mi Calm Calm - N/A   Clear
7:15 AM 24.8 °F - 12.2 °F 59% 30.30 in 10.0 mi Calm Calm - N/A   Clear
7:35 AM 24.8 °F - 14.0 °F 64% 30.30 in 10.0 mi Calm Calm - N/A   Clear
7:55 AM 30.2 °F - 17.6 °F 60% 30.31 in 10.0 mi Calm Calm - N/A   Clear
8:15 AM 32.0 °F - 15.8 °F 51% 30.32 in 10.0 mi Calm Calm - N/A   Clear
8:35 AM 33.8 °F - 17.6 °F 52% 30.32 in 10.0 mi Calm Calm - N/A   Clear
8:55 AM 37.4 °F 34.9 °F 19.4 °F 48% 30.32 in 10.0 mi WNW 3.5 mph - N/A   Clear
9:15 AM 39.2 °F - 17.6 °F 42% 30.33 in 10.0 mi Calm Calm - N/A   Clear
9:35 AM 39.2 °F - 17.6 °F 42% 30.32 in 10.0 mi Calm Calm - N/A   Clear
9:55 AM 39.2 °F - 17.6 °F 42% 30.33 in 10.0 mi Calm Calm - N/A   Clear
10:15 AM 41.0 °F - 17.6 °F 39% 30.32 in 10.0 mi Calm Calm - N/A   Clear
10:35 AM 42.8 °F 41.1 °F 19.4 °F 39% 30.32 in 10.0 mi NW 3.5 mph - N/A   Clear
10:55 AM 44.6 °F 42.2 °F 19.4 °F 37% 30.32 in 10.0 mi WNW 4.6 mph - N/A   Clear
11:15 AM 46.4 °F 45.2 °F 19.4 °F 34% 30.31 in 10.0 mi NW 3.5 mph - N/A   Clear
11:35 AM 48.2 °F - 21.2 °F 34% 30.30 in 10.0 mi Calm Calm - N/A   Clear
11:55 AM 48.2 °F - 19.4 °F 32% 30.30 in 10.0 mi NE 3.5 mph - N/A   Clear
12:15 PM 50.0 °F - 19.4 °F 30% 30.29 in 10.0 mi Calm Calm - N/A   Clear
12:35 PM 51.8 °F - 21.2 °F 30% 30.28 in 10.0 mi Calm Calm - N/A   Clear
12:55 PM 53.6 °F - 21.2 °F 28% 30.27 in 10.0 mi North 5.8 mph - N/A   Clear
1:15 PM 53.6 °F - 21.2 °F 28% 30.26 in 10.0 mi North 4.6 mph - N/A   Clear
1:35 PM 55.4 °F - 21.2 °F 26% 30.25 in 10.0 mi North 5.8 mph - N/A   Clear
1:55 PM 55.4 °F - 21.2 °F 26% 30.24 in 10.0 mi NNE 8.1 mph - N/A   Clear
2:15 PM 57.2 °F - 21.2 °F 25% 30.23 in 10.0 mi WNW 4.6 mph - N/A   Clear
2:35 PM 59.0 °F - 21.2 °F 23% 30.23 in 10.0 mi NNE 3.5 mph - N/A   Clear
2:55 PM 57.2 °F - 21.2 °F 25% 30.22 in 10.0 mi North - - N/A   Clear
3:15 PM 59.0 °F - 19.4 °F 22% 30.21 in 9.0 mi West 4.6 mph - N/A   Clear
3:35 PM 60.8 °F - 19.4 °F 20% 30.21 in 9.0 mi North 6.9 mph - N/A   Clear
4:15 PM 60.8 °F - 19.4 °F 20% 30.20 in 10.0 mi Calm Calm - N/A   Clear
4:35 PM 62.6 °F - 21.2 °F 20% 30.19 in 10.0 mi Calm Calm - N/A   Clear
4:55 PM 62.6 °F - 19.4 °F 19% 30.19 in 10.0 mi SW 4.6 mph - N/A   Clear
5:15 PM 62.6 °F - 19.4 °F 19% 30.18 in 10.0 mi SW 5.8 mph - N/A   Clear
5:35 PM 60.8 °F - 17.6 °F 19% 30.17 in 10.0 mi SSW 5.8 mph - N/A   Clear
5:55 PM 55.4 °F - 15.8 °F 21% 30.17 in 10.0 mi South 5.8 mph - N/A   Clear
6:15 PM 51.8 °F - 12.2 °F 21% 30.17 in 10.0 mi South 4.6 mph - N/A   Clear
6:35 PM 51.8 °F - 14.0 °F 22% 30.17 in 10.0 mi South 4.6 mph - N/A   Clear
6:55 PM 46.4 °F 42.9 °F 12.2 °F 25% 30.17 in 7.0 mi NW 6.9 mph - N/A   Clear
7:15 PM 51.8 °F - 17.6 °F 26% 30.17 in 5.0 mi North - - N/A   Clear
7:35 PM 46.4 °F 42.9 °F 14.0 °F 27% 30.17 in 10.0 mi WNW 6.9 mph - N/A   Clear
7:55 PM 46.4 °F - 14.0 °F 27% 30.18 in 10.0 mi Calm Calm - N/A   Clear
8:15 PM 44.6 °F - 14.0 °F 29% 30.18 in 10.0 mi Calm Calm - N/A   Clear
8:35 PM 44.6 °F 42.2 °F 14.0 °F 29% 30.17 in 1.0 mi NW 4.6 mph - N/A   Clear
8:55 PM 42.8 °F - 10.4 °F 27% 30.18 in 4.0 mi Calm Calm - N/A   Clear
9:15 PM 39.2 °F 35.9 °F 10.4 °F 31% 30.18 in 1.8 mi SE 4.6 mph - N/A   Clear
9:35 PM 39.2 °F 35.9 °F 12.2 °F 33% 30.18 in 8.0 mi South 4.6 mph - N/A   Clear
9:55 PM 39.2 °F 37.0 °F 15.8 °F 39% 30.18 in 1.2 mi SSE 3.5 mph - N/A   Clear
10:15 PM 37.4 °F - 15.8 °F 41% 30.18 in 1.8 mi Calm Calm - N/A   Clear
10:35 PM 37.4 °F - 14.0 °F 38% 30.18 in 10.0 mi Calm Calm - N/A   Clear
10:55 PM 39.2 °F - 15.8 °F 39% 30.18 in 9.0 mi Calm Calm - N/A   Clear
11:15 PM 37.4 °F 34.9 °F 12.2 °F 36% 30.18 in 10.0 mi SW 3.5 mph - N/A   Clear
11:35 PM 35.6 °F 31.7 °F 10.4 °F 35% 30.18 in 10.0 mi South 4.6 mph - N/A   Clear
11:55 PM 35.6 °F 31.7 °F 12.2 °F 38% 30.18 in 10.0 mi West 4.6 mph - N/A   Clear